This demonstration page uses our WeatherBlox Daily Observations layout. Learn more.

38.88101, -77.10428

Hourly Observations for February 4, 2018

Temp ( °F °C ) Dew Point ( °F °C ) Humidity (%) Winds ( mph kmh ) Pressure ( in mb ) Visibility ( mi km ) Precip ( " mm )
12:52 am 00:52 Cloudy 34 1.1 12 -11.1 40 40 S 17 28 30.32 1027 10 16.0934 0 0
1:52 am 01:52 Cloudy 34 1.1 13 -10.6 42 42 S 13 20 30.32 1027 10 16.0934 0 0
2:52 am 02:52 Cloudy 34 1.1 17 -8.3 50 50 S 13 20 30.3 1026 10 16.0934 0 0
3:52 am 03:52 Cloudy 34 1.1 15 -9.4 46 46 S 13 20 30.28 1025 10 16.0934 0 0
4:52 am 04:52 Cloudy 34 1.1 17 -8.3 50 50 S 12 19 30.23 1024 10 16.0934 0 0
5:52 am 05:52 Cloudy 34 1.1 17 -8.3 50 50 SSW 12 19 30.23 1024 10 16.0934 0 0
6:52 am 06:52 Cloudy 34 1.1 18 -7.8 52 52 S 9 15 30.23 1024 10 16.0934 0 0
7:52 am 07:52 Cloudy 35 1.7 21 -6.1 57 57 S 9 15 30.2 1023 10 16.0934 0 0
8:52 am 08:52 Cloudy 35 1.7 20 -6.7 54 54 S 8 13 30.2 1023 10 16.0934 0 0
9:19 am 09:19 Cloudy 35 1.7 19 -7.2 52 52 SSW 6 9 30.21 1023 10 16.0934 0 0
9:46 am 09:46 Cloudy with Light Snow 36 2 19 -7 52 52 SSW 6 9 30.18 1022 9 14.48406 0 0.0254
9:52 am 09:52 Cloudy with Light Snow 35 1.7 21 -6.1 57 57 S 6 9 30.18 1022 7 11.26538 0 0.0254
10:00 am 10:00 Cloudy with Light Snow 34 1.1 23 -5 64 64 SSW 5 7 30.18 1022 6 9.65604 0 0.0254
10:22 am 10:22 Cloudy with Light Rain 33 0.6 26 -3.3 75 75 S 5 7 30.18 1022 10 16.0934 0 0.0254
10:29 am 10:29 Cloudy with Light Rain 33 0.6 26 -3.3 75 75 S 5 7 30.18 1022 10 16.0934 0 0.0254
10:52 am 10:52 Cloudy with Light Rain 33 0.6 27 -2.8 78 78 S 7 11 30.14 1021 10 16.0934 0.01 0.254
11:46 am 11:46 Cloudy with Light Rain 34 1 28 -2 81 81 SE 3 6 30.09 1019 10 16.0934 0.04 1.016
11:52 am 11:52 Cloudy with Light Rain 33 0.6 29 -1.7 85 85 Calm 30.08 1019 10 16.0934 0.04 1.016
12:35 pm 12:35 Cloudy with Light Rain 34 1.1 30 -1.1 85 85 Calm 30.03 1017 8 12.87472 0.04 1.016
12:52 pm 12:52 Cloudy with Rain 34 1.1 31 -0.6 89 89 Calm 30.03 1017 5 8.0467 0.06 1.524
1:52 pm 13:52 Cloudy with Rain 33 0.6 32 0 96 96 NE 3 6 29.96 1014 5 8.0467 0.09 2.286
1:54 pm 13:54 Cloudy with Rain 33 0.6 32 0 96 96 NE 3 6 29.97 1015 5 8.0467 0.01 0.254
2:02 pm 14:02 Cloudy with Rain 34 1.1 32 0 92 92 NE 6 9 29.94 1014 4 6.43736 0.03 0.762
2:15 pm 14:15 Cloudy with Rain 34 1.1 32 0 92 92 NE 8 13 29.94 1014 4 6.43736 0.05 1.27
2:39 pm 14:39 Cloudy with Rain 34 1.1 32 0 92 92 N 7 11 29.91 1013 3 4.82802 0.1 2.54
2:52 pm 14:52 Cloudy with Rain 34 1.1 32 0 92 92 NE 8 13 29.91 1013 3 4.82802 0.13 3.302
3:37 pm 15:37 Cloudy with Rain 34 1.1 33 0.6 97 97 NNE 7 11 29.88 1012 2.5 4.02335 0.12 3.048
3:46 pm 15:46 Cloudy with Rain 34 1 32 0 93 93 NNE 10 17 29.88 1012 3 4.82802 0.15 3.81
3:52 pm 15:52 Cloudy with Rain 34 1.1 32 0 92 92 NE 12 19 29.85 1011 3 4.82802 0.17 4.318
4:05 pm 16:05 Cloudy with Rain 34 1.1 33 0.6 97 97 NNW 8 13 29.88 1012 4 6.43736 0.04 1.016
4:13 pm 16:13 Cloudy with Heavy Rain 34 1.1 33 0.6 97 97 NNW 9 15 29.88 1012 3 4.82802 0.07 1.778
4:38 pm 16:38 Cloudy with Heavy Rain 34 1.1 33 0.6 97 97 N 10 17 29.85 1011 2.5 4.02335 0.2 5.08
4:52 pm 16:52 Cloudy with Heavy Rain 34 1.1 33 0.6 97 97 N 9 15 29.84 1011 2.5 4.02335 0.28 7.112
5:16 pm 17:16 Cloudy with Rain 35 1.7 34 1.1 96 96 NNE 9 15 29.83 1010 2.5 4.02335 0.15 3.81
5:23 pm 17:23 Cloudy with Rain 35 1.7 33 0.6 93 93 NNE 9 15 29.8 1009 3 4.82802 0.17 4.318
5:30 pm 17:30 Cloudy with Rain 35 1.7 34 1.1 96 96 NE 12 19 29.8 1009 2.5 4.02335 0.2 5.08
5:35 pm 17:35 Cloudy with Rain 35 1.7 34 1.1 96 96 NNE 12 19 29.77 1008 3 4.82802 0.23 5.842
5:47 pm 17:47 Cloudy with Light Rain 35 1.7 34 1.1 96 96 N 7 11 29.8 1009 4 6.43736 0.25 6.35
6:05 pm 18:05 Cloudy with Rain 35 1.7 35 1.7 100 100 N 3 6 29.8 1009 2.5 4.02335 0.03 0.762
6:12 pm 18:12 Cloudy with Light Rain 35 1.7 34 1.1 96 96 NNE 3 6 29.8 1009 3 4.82802 0.05 1.27
6:45 pm 18:45 Cloudy with Light Rain 35 1.7 34 1.1 96 96 ENE 3 6 29.8 1009 5 8.0467 0.08 2.032
6:52 pm 18:52 Cloudy with Light Rain 35 1.7 34 1.1 96 96 E 7 11 29.77 1008 6 9.65604 0.08 2.032
7:28 pm 19:28 Cloudy 35 1.7 34 1.1 96 96 N 7 11 29.77 1008 10 16.0934 0.01 0.254
7:52 pm 19:52 Cloudy 36 2.2 35 1.7 97 97 N 6 9 29.76 1008 10 16.0934 0.01 0.254
8:03 pm 20:03 Cloudy 36 2.2 36 2.2 100 100 Calm 29.77 1008 10 16.0934 0 0
8:10 pm 20:10 Cloudy 36 2.2 35 1.7 97 97 NNW 6 9 29.77 1008 10 16.0934 0 0
8:14 pm 20:14 Cloudy 37 2.8 35 1.7 93 93 NW 7 11 29.77 1008 10 16.0934 0 0
8:52 pm 20:52 Cloudy 36 2.2 35 1.7 97 97 NW 6 9 29.77 1008 9 14.48406 0 0
9:52 pm 21:52 Cloudy 37 2.8 35 1.7 93 93 Calm 29.78 1009 10 16.0934 0 0
10:19 pm 22:19 Cloudy 37 2.8 35 1.7 93 93 W 5 7 29.8 1009 10 16.0934 0 0
10:52 pm 22:52 Mostly Cloudy 36 2.2 34 1.1 93 93 WSW 6 9 29.79 1009 10 16.0934 0 0
11:52 pm 23:52 Mostly Clear 35 1.7 33 0.6 93 93 W 6 9 29.8 1009 10 16.0934 0 0

Powered by AerisWeather